This is the latest recevied weather packets stored in our database for station/object KG0HG. If no packets are shown the sender has not sent any weather packets the latest 10 day(s).
| Time | Temp. | Humidity | Pressure | Rain* | Wind** | Luminosity | Snow |
|---|---|---|---|---|---|---|---|
| 1777741874 | 13.89° C | 33% | 1022 hPa | 0 mm | - | 52 W/m² | - |
| 1777741571 | 13.89° C | 34% | 1022 hPa | 0 mm | - | 51 W/m² | - |
| 1777741268 | 14.44° C | 35% | 1022.1 hPa | 0 mm | - | 57 W/m² | - |
| 1777740965 | 13.89° C | 35% | 1022.1 hPa | 0 mm | - | 49 W/m² | - |
| 1777740662 | 13.89° C | 37% | 1022.2 hPa | 0 mm | - | 51 W/m² | - |
| 1777740358 | 13.89° C | 37% | 1022 hPa | 0 mm | - | 54 W/m² | - |
| 1777740055 | 13.89° C | 39% | 1022.2 hPa | 0 mm | - | 53 W/m² | - |
| 1777739751 | 13.33° C | 38% | 1022 hPa | 0 mm | - | 48 W/m² | - |
| 1777739448 | 13.89° C | 38% | 1022.2 hPa | 0 mm | - | 46 W/m² | - |
| 1777739145 | 13.33° C | 40% | 1021.9 hPa | 0 mm | - | 54 W/m² | - |
| 1777738842 | 13.33° C | 43% | 1022 hPa | 0 mm | - | 95 W/m² | - |
| 1777738538 | 13.33° C | 44% | 1022.2 hPa | 0 mm | - | 70 W/m² | - |
| 1777738236 | 13.33° C | 43% | 1022.2 hPa | 0 mm | - | 45 W/m² | - |
| 1777737934 | 13.33° C | 43% | 1022 hPa | 0 mm | - | 60 W/m² | - |
| 1777737632 | 12.78° C | 42% | 1022 hPa | 0 mm | - | 42 W/m² | - |
| 1777737331 | 13.33° C | 42% | 1022.2 hPa | 0 mm | - | 42 W/m² | - |
| 1777737027 | 13.33° C | 40% | 1022 hPa | 0 mm | - | 40 W/m² | - |
| 1777736722 | 13.33° C | 40% | 1022.1 hPa | 0 mm | - | 46 W/m² | - |
| 1777736090 | 12.78° C | 42% | 1022.4 hPa | 0 mm | - | 45 W/m² | - |
| 1777735786 | 12.78° C | 44% | 1022.3 hPa | 0 mm | - | 33 W/m² | - |
| 1777735484 | 12.78° C | 46% | 1022.4 hPa | 0 mm | - | 47 W/m² | - |
| 1777735182 | 12.78° C | 46% | 1022.1 hPa | 0 mm | - | 39 W/m² | - |
| 1777734878 | 12.78° C | 48% | 1022.2 hPa | 0 mm | - | 38 W/m² | - |
| 1777734576 | 12.78° C | 50% | 1022.2 hPa | 0 mm | - | 37 W/m² | - |
| 1777734272 | 12.22° C | 50% | 1022.3 hPa | 0 mm | - | 41 W/m² | - |
* Rain latest hour (hover to see other rain measurements)
** Current wind speed in m/s (hover to see current wind gust speed)